Regional Weather Roundup
Issued by NWS Austin/San Antonio, TX

Home | Current Version | Previous Version | Text Only | Print | Product List | Glossary On
Versions: 1 2 3 4 5 6 7 8 9 10 11 12 13 14 15 16 17 18 19 20 21 22 23 24 25 26 27 28 29 30 31 32 33 34 35 36 37 38 39 40 41 42 43 44 45 46 47 48 49 50
000
ASUS44 KEWX 241910
RWREWX
SOUTH TEXAS REGIONAL WEATHER ROUNDUP
NATIONAL WEATHER SERVICE AUSTIN/SAN ANTONIO TX
200 PM CDT SAT AUG 24 2019

NOTE: "FAIR" INDICATED FEW OR NO CLOUDS BELOW 12,000 FEET WITH NO
SIGNIFICANT WEATHER AND/OR OBSTRUCTIONS TO VISIBILITY.

* - THESE STATIONS ARE NOT NWS OR FAA STATIONS...AND ARE NOT SUBJECT
    TO NWS AND FAA QUALITY CONTROL.

TXZ171-172-183>190-242000-
TEXAS HILL COUNTRY AND EDWARDS PLATEAU

CITY           SKY/WX    TMP DP  RH WIND       PRES   REMARKS
JUNCTION       MOSUNNY   92  71  50 SE6       29.95F HX  98
*LLANO         MOSUNNY   93  70  46 E5        29.96F HX  99
BURNET         MOSUNNY   92  68  45 VRB3      29.95F HX  96
*HORSESHOE BAY MOSUNNY   91  70  49 N3        29.93S HX  97
*KERRVILLE     SUNNY     92  71  50 CALM      29.95S HX  98
*FREDERICKSBRG SUNNY     85  69  60 E6        29.97S
*ROCKSPRINGS   SUNNY     88  68  51 VRB3G12   30.02F HX  91
*BOERNE        MOSUNNY   90  70  51 NE10      29.94F HX  95
*CASTROVILLE   SUNNY     95  68  40 E8        29.91F HX  99
HONDO          SUNNY     93  69  45 VRB3      29.90F HX  98
*UVALDE        MOSUNNY   93  71  47 SE5       29.90F HX  99
DEL RIO        SUNNY     96  69  41 S12       29.86F HX 102
LAUGHLIN AFB   SUNNY     94  70  45 S12       29.88F HX 100
SPOFFORD       SUNNY     93  71  47 E8        29.83F HX 100
*EAGLE PASS    MOSUNNY   97  68  38 SE10G18   29.87F HX 101
CARRIZO SPRGS  MOSUNNY   93  72  49 SE9       29.87F HX 100
$$

TXZ173-191>194-202-209-217>225-228-242000-
CENTRAL AND SOUTH CENTRAL TEXAS

CITY           SKY/WX    TMP DP  RH WIND       PRES   REMARKS
GEORGETOWN     PTSUNNY   92  71  50 VRB6      29.93F HX  98
AUSTIN/BERGSTM CLOUDY    92  73  53 N3        29.90F HX 100
AUSTIN/MABRY   MOSUNNY   91  70  49 CALM      29.92F HX  96
*AUSTIN/EXEC   SUNNY     91  72  52 CALM      29.92S HX  98
*LAGO VISTA    MOSUNNY   89  72  55 CALM      29.95S HX  96
SAN MARCOS     MOSUNNY   93  73  52 E6        29.91F HX 102
NEW BRAUNFELS  MOSUNNY   93  71  48 NE9       29.89F HX 100
RANDOLPH AFB   PTSUNNY   93  73  51 NE6       29.90F HX 101
SEGUIN         CLOUDY    91  72  53 E6        29.94S HX  98
KELLY FIELD    PTSUNNY   94  72  49 E7        29.88F HX 101
SAN ANTONIO    PTSUNNY   92  71  50 E6        29.91F HX  98
STINSON FIELD  SUNNY     95  72  47 VRB5      29.87F HX 103
PLEASANTON     MOSUNNY   96  72  46 N6        29.88F HX 104
*LA GRANGE     SUNNY     96  73  48 E7        29.88S HX 105
*GIDDINGS      MOSUNNY   98  71  42 S3        29.91S HX 105
*GONZALES      MOSUNNY   95  73  49 CALM      29.88F HX 104
$$

TXZ163>164-176>182-195>201-210>213-226-227-235-242000-
SOUTHEAST TEXAS

CITY           SKY/WX    TMP DP  RH WIND       PRES   REMARKS
COLLEGE STN    MOSUNNY   93  70  46 NE8       29.89F HX  99
*BRYAN         PTSUNNY   94  72  48 SE8       29.91F HX 102
*CALDWELL      PTSUNNY   92  71  49 E6        29.91S HX  99
*CROCKETT      PTSUNNY   90  73  58 SE6       29.95S HX  98
*BRENHAM       MOSUNNY   93  71  49 E5        29.90F HX 100
HUNTSVILLE     PTSUNNY   92  70  48 CALM      29.91F HX  97
CONROE         SUNNY     90  75  61 SE7       29.91F HX 100
HOUSTON BUSH   PTSUNNY   89  72  56 E6        29.91F HX  96
HOUSTON HOBBY  PTSUNNY   88  74  63 SE8       29.90F HX  96
*HOUSTON SW AP CLOUDY    87  76  69 SE5       29.92F HX  97
PEARLAND       FAIR      88  74  63 SE6       29.92F HX  96
HOUSTON HOOKS  PTSUNNY   89  72  56 E6        29.90F HX  96
ELLINGTON FLD  NOT AVBL
SUGAR LAND     FAIR      91  76  61 E7        29.90F HX 103
*HOUSTON EXEC  FAIR      93  73  52 CALM      29.91F HX 102
*CLEVELAND MUN FAIR      88  77  69 CALM      29.92F HX 100
*WHARTON       PTSUNNY   91  72  55 E5        29.91F HX  98
*COLUMBUS      LGT RAIN  86  73  65 E6        29.91S HX  94
*EAGLE LAKE    MOSUNNY   95  76  55 E9        29.89  HX 108
$$

TXZ214>216-236>238-242000-
THE UPPER TEXAS COAST

CITY           SKY/WX    TMP DP  RH WIND       PRES   REMARKS
*ORANGE        CLOUDY    86  80  82 SE8       29.92F HX 102
PORT ARTHUR    FAIR      86  77  74 S8        29.90S HX  97
GALVESTON      FAIR      87  78  74 SE9       29.92F HX 100
ANGLETON       FAIR      86  76  71 E7        29.92F HX  96
*BAY CITY      MOSUNNY   91  79  66 E10       29.91F HX 107
PALACIOS       PTSUNNY   86  78  77 SE14      29.90F HX  98
$$

TXZ229>234-239>247-242000-
TEXAS COASTAL BEND AND RIO GRANDE PLAINS

CITY           SKY/WX    TMP DP  RH WIND       PRES   REMARKS
VICTORIA       MOSUNNY   93  76  57 E8        29.89F HX 105
*BEEVILLE      NOT AVBL
ROCKPORT       PTSUNNY   85  77  77 E8        29.90R HX  95
*PORT ARANSAS  MOSUNNY   87  80  78 E10       29.91S HX 103
*PORT LAVACA   SUNNY     89  77  67 E13       29.90F HX 102
*INGLESIDE     PTSUNNY   86  76  74 E10       29.90S HX  96
CORPUS CHRISTI TSTM      92  79  65 SE13      29.87F HX 108
CORPUS NAS       N/A    N/A N/A N/A MISG      29.88F
*ROBSTOWN      SUNNY     98  75  47 SE16      29.87F HX 110
ALICE          MOSUNNY  100  71  39 S5G22     29.84F HX 108
KINGSVILLE NAS PTSUNNY   99  71  40 SE7       29.85F HX 107
COTULLA        MOSUNNY   98  69  38 E6        29.87F HX 104
LAREDO         MOSUNNY   98  69  38 CALM      29.84F HX 104
$$

TXZ248>255-242000-
DEEP SOUTH TEXAS

CITY           SKY/WX    TMP DP  RH WIND       PRES   REMARKS
BROWNSVILLE    PTSUNNY   94  79  61 SE18      29.85F HX 111
PORT ISABEL    FAIR      94  78  60 SE22      29.85F HX 110
HARLINGEN      MOSUNNY  100  74  43 SE10      29.84F HX 112
*HEBBRONVILLE  PTSUNNY   96  66  36 CALM      29.87F HX  99
MCALLEN        SUNNY    100  72  40 VRB5      29.84F HX 109
*WESLACO       SUNNY     98  71  42 SE7       29.84  HX 105
FALFURRIAS     MOSUNNY  101  70  37 E7        29.85F HX 108
EDINBURG       FAIR      98  69  37 SE7       29.84F HX 104
*ZAPATA        FAIR     101  67  32 SE9       29.85F HX 106
$$

TXZ213>215-236>238-242>244-246-247-251-254-255-242000-
CMAN STATIONS

STATION/POSITION TIME  TEMP    WIND        PRES    WAVE
                       AIR SEA DIR/SP/G            HT/PER
                 (UTC) (F)     (DEG/KT/KT) (MB)    (FT/S)
SABINE PASS      1830          160/  5/  8   N/A
NORTH JETTY/GLS  1818   84 86  160/  2/  3 1012.3
EAGLE POINT      1830          130/  4/  6   N/A
MORGANS POINT    1830   85 87  160/  6/  9 1013.1
PORT O`CONNOR    1830          340/  5/  7   N/A
PORT ARANSAS     1900   84 88   90/ 13/ 14 1012.6
MALAQUITE BEACH  1830           80/ 12/ 13   N/A
BAFFIN BAY       1830           90/ 11/ 14   N/A
PORT ISABEL      1830          130/ 15/ 18   N/A
$$



USA.gov is the U.S. government's official web portal to all federal, state and local government web resources and services.